Regional Weather Roundup
Issued by NWS

Home | Current Version | Previous Version | Graphics & Text | Print | Product List | Glossary On
Versions: 1 2 3 4 5 6 7 8 9 10 11 12 13 14 15 16 17 18 19 20 21 22 23 24 25 26 27 28 29 30 31 32 33 34 35 36 37 38 39 40 41 42 43 44 45 46 47 48 49 50
363
ASUS45 KBOI 251110
RWRID

IDAHO REGIONAL WEATHER ROUNDUP
NATIONAL WEATHER SERVICE BOISE ID
400 AM MST SAT FEB 25 2017

NOTE: "FAIR" INDICATES FEW OR NO CLOUDS BELOW 12000 FEET
WITH NO SIGNIFICANT WEATHER AND/OR OBSTRUCTIONS TO VISIBILITY

IDZ012-014-251200-
SOUTHWEST IDAHO


CITY           SKY/WX    TMP DP  RH WIND       PRES   REMARKS
BOISE          CLEAR     23  15  71 SE7       30.14F WCI  15
CALDWELL       CLEAR     22  18  85 CALM      30.17F
MOUNTAIN HOME  PTCLDY    21  21 100 E5        30.14S WCI  14
$$

IDZ016-017-251200-
SOUTHCENTRAL IDAHO


CITY           SKY/WX    TMP DP  RH WIND       PRES   REMARKS
BURLEY         CLOUDY    22  11  62 SW9       30.06F WCI  12
JEROME           N/A    N/A N/A N/A MISG      30.09F
TWIN FALLS     MOCLDY    18   6  59 S12       30.08F WCI   5
$$

IDZ019>023-251200-
SOUTHEAST IDAHO


CITY           SKY/WX    TMP DP  RH WIND       PRES   REMARKS
IDAHO FALLS    CLOUDY    11   6  81 SW3       30.05F
POCATELLO      CLOUDY     5   1  83 NW6       30.06F WCI  -6
REXBURG        CLOUDY    15   6  67 S14       30.02F WCI   0
$$

IDZ006-010-011-018-031-032-251200-
CENTRAL IDAHO MOUNTAINS


CITY           SKY/WX    TMP DP  RH WIND       PRES   REMARKS
MCCALL         CLEAR      6   0  76 CALM      30.02F
HAILEY         PTCLDY     9   5  85 NW8       30.04F WCI  -4
STANLEY          N/A     -1  -4  87 SE6       29.98F WCI -13
SALMON         CLOUDY    25  19  80 S7        30.03S WCI  17
CHALLIS        PTCLDY    19   4  51 W12       30.00S WCI   7
$$

IDZ002-004-006-007-026-251200-
NORTHERN IDAHO


CITY           SKY/WX    TMP DP  RH WIND       PRES   REMARKS
LEWISTON       CLEAR     27  19  72 CALM      30.18S
LOWELL           N/A     27  23  85 CALM      30.22F
COEUR D`ALENE  CLEAR     19  18  95 SE5       30.12F WCI  12
MULLAN PASS    LGT SNOW  13  11  92 VRB3      29.90F FOG
$$




USA.gov is the U.S. government's official web portal to all federal, state and local government web resources and services.